Location: Zapote
(9.9191°N, 84.0597°W)
Time: 03:48:21
(UTC-06:00)

Hubble Space Telescope - Pass Details

Date: 25 January 2021
Orbit: 536 x 539 km, 28.5° (Epoch: 28 February)

Event Time Altitude Azimuth Distance (km) Brightness Sun altitude
Rises 19:11:46 0° 318° (NW) 2,670 4.7 -22.7°
Reaches altitude 10° 19:14:38 10° 338° (NNW) 1,780 3.5 -23.4°
Enters shadow 19:15:07 12° 343° (NNW) 1,662 3.3 -23.5°
